1547485200.35,38163,0.0,0.0,-14.95,-15.57,-15.57,0,*66
1547485201.59,38164,0.0,0.0,-14.95,-15.67,-15.57,0,*62
1547485202.82,38165,0.0,0.0,-14.95,-15.71,-15.57,0,*64
1547485204.06,38166,0.0,0.0,-14.95,-15.67,-15.57,0,*60
1547485205.31,38167,0.0,0.0,-14.95,-15.57,-15.57,0,*62
1547485206.55,38168,0.0,0.0,-14.95,-15.71,-15.57,0,*69
1547485207.75,38169,0.0,0.0,-14.95,-15.67,-15.67,0,*6C
1547485208.96,38170,0.0,0.0,-14.95,-15.67,-15.67,0,*64
1547485210.16,38171,0.0,0.0,-14.95,-15.67,-15.67,0,*65
1547485211.39,38172,0.0,0.0,-14.95,-15.57,-15.67,0,*65
1547485212.62,38173,0.0,0.0,-14.95,-15.57,-15.67,0,*64
1547485213.85,38174,0.0,0.0,-14.95,-15.67,-15.57,0,*63
1547485215.09,38175,0.0,0.0,-14.95,-15.67,-15.57,0,*62
1547485216.3,38176,0.0,0.0,-14.95,-15.71,-15.53,0,*62
1547485217.53,38177,0.0,0.0,-14.97,-15.71,-15.67,0,*66
1547485218.76,38178,0.0,0.0,-14.95,-15.57,-15.67,0,*6F
1547485219.97,38179,0.0,0.0,-14.95,-15.71,-15.67,0,*6A
1547485221.2,38180,0.0,0.0,-14.95,-15.57,-15.67,0,*68
1547485222.44,38181,0.0,0.0,-14.93,-15.53,-15.53,0,*6C
1547485223.67,38182,0.0,0.0,-14.95,-15.57,-15.67,0,*6A
1547485224.87,38183,0.0,0.0,-14.95,-15.67,-15.67,0,*68
1547485226.1,38184,0.0,0.0,-14.97,-15.67,-15.67,0,*6D
1547485227.31,38185,0.0,0.0,-14.95,-15.67,-15.67,0,*6E
1547485228.57,38186,0.0,0.0,-14.97,-15.57,-15.67,0,*6C
1547485229.85,38187,0.0,0.0,-14.97,-15.57,-15.57,0,*6E
1547485231.09,38188,0.0,0.0,-14.95,-15.67,-15.57,0,*60
1547485232.35,38189,0.0,0.0,-14.97,-15.67,-15.57,0,*63
1547485233.59,38190,0.0,0.0,-14.95,-15.67,-15.57,0,*69
1547485234.82,38191,0.0,0.0,-14.95,-15.67,-15.57,0,*68
1547485236.06,38192,0.0,0.0,-14.95,-15.67,-15.57,0,*6B
1547485237.3,38193,0.0,0.0,-14.97,-15.67,-15.71,0,*6C
1547485238.53,38194,0.0,0.0,-14.97,-15.67,-15.67,0,*6C
1547485239.73,38195,0.0,0.0,-14.95,-15.67,-15.67,0,*6F
1547485240.96,38196,0.0,0.0,-14.95,-15.57,-15.67,0,*6F
1547485242.2,38197,0.0,0.0,-14.95,-15.71,-15.57,0,*69
1547485243.45,38198,0.0,0.0,-14.97,-15.57,-15.67,0,*63
1547485244.71,38199,0.0,0.0,-14.97,-15.57,-15.67,0,*62
1547485245.92,38200,0.0,0.0,-14.95,-15.67,-15.67,0,*60
1547485247.12,38201,0.0,0.0,-14.95,-15.67,-15.67,0,*61
1547485248.35,38202,0.0,0.0,-14.97,-15.67,-15.67,0,*60
1547485249.56,38203,0.0,0.0,-14.95,-15.67,-15.67,0,*63
1547485250.8,38204,0.0,0.0,-14.97,-15.67,-15.71,0,*61
1547485252.03,38205,0.0,0.0,-14.97,-15.67,-15.67,0,*67
1547485253.27,38206,0.0,0.0,-14.95,-15.67,-15.57,0,*65
1547485254.53,38207,0.0,0.0,-14.97,-15.67,-15.57,0,*66
1547485255.74,38208,0.0,0.0,-14.95,-15.67,-15.71,0,*6F
1547485256.95,38209,0.0,0.0,-14.95,-15.67,-15.67,0,*69
1547485258.15,38210,0.0,0.0,-14.95,-15.67,-15.71,0,*66
1547485259.42,38211,0.0,0.0,-14.97,-15.67,-15.57,0,*61
1547485260.66,38212,0.0,0.0,-14.93,-15.63,-15.63,0,*65
1547485261.86,38213,0.0,0.0,-14.95,-15.71,-15.67,0,*65
1547485263.06,38214,0.0,0.0,-14.95,-15.67,-15.67,0,*65
1547485264.33,38215,0.0,0.0,-14.97,-15.57,-15.53,0,*62
1547485265.57,38216,0.0,0.0,-14.95,-15.67,-15.57,0,*64
1547485266.8,38217,0.0,0.0,-14.95,-15.67,-15.57,0,*65
1547485268.0,38218,0.0,0.0,-14.95,-15.67,-15.67,0,*69
1547485269.21,38219,0.0,0.0,-14.95,-15.67,-15.67,0,*68
1547485270.44,38220,0.0,0.0,-14.97,-15.67,-15.67,0,*60
1547485271.71,38221,0.0,0.0,-14.97,-15.67,-15.57,0,*62
1547485272.91,38222,0.0,0.0,-14.95,-15.71,-15.67,0,*67
1547485274.15,38223,0.0,0.0,-14.95,-15.67,-15.57,0,*62
1547485275.35,38224,0.0,0.0,-14.95,-15.67,-15.67,0,*66
1547485276.58,38225,0.0,0.0,-14.95,-15.67,-15.57,0,*64
1547485277.85,38226,0.0,0.0,-14.97,-15.67,-15.57,0,*65
1547485279.14,38227,0.0,0.0,-14.97,-15.57,-15.57,0,*67
1547485280.35,38228,0.0,0.0,-14.95,-15.67,-15.71,0,*6D
1547485281.61,38229,0.0,0.0,-14.97,-15.67,-15.57,0,*6A
1547485282.87,38230,0.0,0.0,-14.97,-15.67,-15.57,0,*62
1547485284.08,38231,0.0,0.0,-14.95,-15.67,-15.67,0,*62
1547485285.34,38232,0.0,0.0,-14.97,-15.67,-15.57,0,*60
1547485286.6,38233,0.0,0.0,-14.97,-15.57,-15.67,0,*61
1547485287.83,38234,0.0,0.0,-14.95,-15.57,-15.67,0,*64
1547485289.12,38235,0.0,0.0,-14.97,-15.57,-15.57,0,*64
1547485290.37,38236,0.0,0.0,-14.97,-15.57,-15.67,0,*64
1547485291.63,38237,0.0,0.0,-14.97,-15.57,-15.67,0,*65
1547485292.87,38238,0.0,0.0,-14.97,-15.67,-15.67,0,*69
1547485294.1,38239,0.0,0.0,-14.95,-15.57,-15.67,0,*69
1547485295.34,38240,0.0,0.0,-14.97,-15.67,-15.53,0,*61
1547485296.57,38241,0.0,0.0,-14.95,-15.67,-15.57,0,*66
1547485297.81,38242,0.0,0.0,-14.95,-15.67,-15.57,0,*65
1547485299.01,38243,0.0,0.0,-14.95,-15.67,-15.67,0,*67
1547485300.27,38244,0.0,0.0,-14.97,-15.57,-15.67,0,*61
1547485301.5,38245,0.0,0.0,-14.95,-15.67,-15.57,0,*62
1547485302.77,38246,0.0,0.0,-14.97,-15.67,-15.57,0,*63
1547485304.03,38247,0.0,0.0,-14.97,-15.71,-15.57,0,*65
1547485305.3,38248,0.0,0.0,-14.97,-15.67,-15.57,0,*6D
1547485306.59,38249,0.0,0.0,-14.97,-15.57,-15.57,0,*6F
1547485307.87,38250,0.0,0.0,-14.97,-15.57,-15.57,0,*67
1547485309.14,38251,0.0,0.0,-14.97,-15.67,-15.57,0,*65
1547485310.4,38252,0.0,0.0,-14.97,-15.67,-15.57,0,*66
1547485311.64,38253,0.0,0.0,-14.97,-15.67,-15.67,0,*64
1547485312.87,38254,0.0,0.0,-14.97,-15.67,-15.67,0,*63
1547485314.14,38255,0.0,0.0,-14.97,-15.53,-15.57,0,*66
1547485315.37,38256,0.0,0.0,-14.95,-15.57,-15.67,0,*60
1547485316.65,38257,0.0,0.0,-14.97,-15.57,-15.57,0,*60
1547485317.92,38258,0.0,0.0,-14.97,-15.67,-15.57,0,*6C
1547485319.15,38259,0.0,0.0,-14.97,-15.67,-15.67,0,*6E
1547485320.36,38260,0.0,0.0,-14.95,-15.67,-15.67,0,*66
1547485321.59,38261,0.0,0.0,-14.97,-15.67,-15.67,0,*65
1547485322.85,38262,0.0,0.0,-14.97,-15.57,-15.67,0,*65
1547485324.09,38263,0.0,0.0,-14.99,-15.71,-15.57,0,*6D
1547485325.35,38264,0.0,0.0,-14.97,-15.67,-15.57,0,*63
1547485326.59,38265,0.0,0.0,-14.97,-15.67,-15.67,0,*61
1547485327.82,38266,0.0,0.0,-14.97,-15.71,-15.67,0,*65
1547485329.06,38267,0.0,0.0,-14.97,-15.67,-15.67,0,*63
1547485330.29,38268,0.0,0.0,-14.95,-15.67,-15.57,0,*6D
1547485331.52,38269,0.0,0.0,-14.97,-15.67,-15.67,0,*6D
1547485332.76,38270,0.0,0.0,-14.97,-15.67,-15.67,0,*65
1547485333.99,38271,0.0,0.0,-14.97,-15.67,-15.67,0,*64
1547485335.23,38272,0.0,0.0,-14.97,-15.71,-15.67,0,*60
1547485336.51,38273,0.0,0.0,-14.97,-15.57,-15.57,0,*66
1547485337.73,38274,0.0,0.0,-14.99,-15.71,-15.63,0,*6C
1547485338.94,38275,0.0,0.0,-14.99,-15.71,-15.63,0,*6D
1547485340.15,38276,0.0,0.0,-14.99,-15.63,-15.71,0,*6E
1547485341.41,38277,0.0,0.0,-14.97,-15.57,-15.67,0,*61
1547485342.64,38278,0.0,0.0,-14.95,-15.57,-15.67,0,*6C
1547485343.87,38279,0.0,0.0,-14.97,-15.67,-15.67,0,*6C
1547485345.09,38280,0.0,0.0,-14.99,-15.71,-15.71,0,*64
1547485346.3,38281,0.0,0.0,-14.99,-15.63,-15.71,0,*66
1547485347.51,38282,0.0,0.0,-14.99,-15.71,-15.67,0,*61
1547485348.72,38283,0.0,0.0,-14.99,-15.63,-15.71,0,*64
1547485349.94,38284,0.0,0.0,-14.99,-15.71,-15.71,0,*60
1547485351.15,38285,0.0,0.0,-14.99,-15.71,-15.71,0,*61
1547485352.36,38286,0.0,0.0,-14.99,-15.71,-15.71,0,*62
1547485353.58,38287,0.0,0.0,-14.99,-15.75,-15.71,0,*67
1547485354.82,38288,0.0,0.0,-14.97,-15.67,-15.67,0,*62
1547485356.03,38289,0.0,0.0,-14.99,-15.71,-15.75,0,*69
1547485357.25,38290,0.0,0.0,-14.99,-15.75,-15.63,0,*62
1547485358.46,38291,0.0,0.0,-14.99,-15.63,-15.63,0,*64
1547485359.67,38292,0.0,0.0,-14.99,-15.75,-15.63,0,*60
1547485360.89,38293,0.0,0.0,-14.99,-15.71,-15.63,0,*65
1547485362.09,38294,0.0,0.0,-14.95,-15.67,-15.67,0,*6D
1547485363.3,38295,0.0,0.0,-14.95,-15.67,-15.67,0,*6C
1547485364.53,38296,0.0,0.0,-14.97,-15.67,-15.67,0,*6D
1547485365.76,38297,0.0,0.0,-14.97,-15.67,-15.67,0,*6C
1547485366.98,38298,0.0,0.0,-14.99,-15.71,-15.71,0,*6D
1547485368.27,38299,0.0,0.0,-14.97,-15.57,-15.57,0,*62
1547485369.55,38300,0.0,0.0,-14.97,-15.57,-15.57,0,*63
1547485370.82,38301,0.0,0.0,-14.97,-15.67,-15.57,0,*61
1547485372.05,38302,0.0,0.0,-14.97,-15.67,-15.67,0,*61
1547485373.31,38303,0.0,0.0,-14.97,-15.57,-15.67,0,*63
1547485374.54,38304,0.0,0.0,-14.97,-15.67,-15.67,0,*67
1547485375.76,38305,0.0,0.0,-14.99,-15.71,-15.71,0,*68
1547485376.99,38306,0.0,0.0,-14.97,-15.67,-15.67,0,*65
1547485378.21,38307,0.0,0.0,-14.99,-15.71,-15.71,0,*6A
1547485379.44,38308,0.0,0.0,-14.97,-15.67,-15.67,0,*6B
1547485380.66,38309,0.0,0.0,-14.99,-15.71,-15.71,0,*64
1547485381.87,38310,0.0,0.0,-14.99,-15.63,-15.71,0,*6F
1547485383.08,38311,0.0,0.0,-14.99,-15.63,-15.63,0,*6D
1547485384.35,38312,0.0,0.0,-14.97,-15.67,-15.57,0,*63
1547485385.61,38313,0.0,0.0,-14.97,-15.67,-15.57,0,*62
1547485386.83,38314,0.0,0.0,-14.99,-15.71,-15.71,0,*68
1547485388.06,38315,0.0,0.0,-14.97,-15.71,-15.67,0,*60
1547485389.29,38316,0.0,0.0,-14.97,-15.67,-15.67,0,*64
1547485390.56,38317,0.0,0.0,-14.97,-15.67,-15.57,0,*66
1547485391.82,38318,0.0,0.0,-14.97,-15.57,-15.67,0,*69
1547485393.03,38319,0.0,0.0,-14.99,-15.71,-15.63,0,*66
1547485394.24,38320,0.0,0.0,-14.99,-15.75,-15.63,0,*68
1547485395.46,38321,0.0,0.0,-14.99,-15.71,-15.63,0,*6D
1547485396.67,38322,0.0,0.0,-14.99,-15.71,-15.71,0,*6D
1547485397.91,38323,0.0,0.0,-15.01,-15.71,-15.63,0,*6F
1547485399.12,38324,0.0,0.0,-14.99,-15.63,-15.63,0,*6B
1547485400.33,38325,0.0,0.0,-14.99,-15.63,-15.63,0,*6A
1547485401.54,38326,0.0,0.0,-14.99,-15.63,-15.63,0,*69
1547485402.75,38327,0.0,0.0,-14.99,-15.71,-15.63,0,*6B
1547485403.97,38328,0.0,0.0,-14.99,-15.71,-15.63,0,*64
1547485405.18,38329,0.0,0.0,-14.99,-15.71,-15.63,0,*65
1547485406.39,38330,0.0,0.0,-14.99,-15.71,-15.71,0,*6E
1547485407.61,38331,0.0,0.0,-14.99,-15.71,-15.71,0,*6F
1547485408.81,38332,0.0,0.0,-14.95,-15.67,-15.67,0,*60
1547485410.02,38333,0.0,0.0,-14.99,-15.71,-15.63,0,*6E
1547485411.26,38334,0.0,0.0,-15.01,-15.75,-15.63,0,*6D
1547485412.48,38335,0.0,0.0,-14.99,-15.71,-15.71,0,*6B
1547485413.72,38336,0.0,0.0,-15.01,-15.71,-15.63,0,*6B
1547485414.93,38337,0.0,0.0,-14.99,-15.71,-15.71,0,*69
1547485416.14,38338,0.0,0.0,-14.99,-15.63,-15.63,0,*66
1547485417.38,38339,0.0,0.0,-14.99,-15.71,-15.57,0,*63
1547485418.62,38340,0.0,0.0,-15.01,-15.75,-15.63,0,*6E
1547485419.84,38341,0.0,0.0,-14.99,-15.71,-15.63,0,*6B
1547485421.07,38342,0.0,0.0,-15.01,-15.71,-15.63,0,*68
1547485422.29,38343,0.0,0.0,-14.99,-15.75,-15.63,0,*6D
1547485423.5,38344,0.0,0.0,-14.99,-15.71,-15.63,0,*6E
1547485424.71,38345,0.0,0.0,-14.99,-15.71,-15.63,0,*6F
1547485425.98,38346,0.0,0.0,-15.01,-15.63,-15.57,0,*68
1547485427.19,38347,0.0,0.0,-14.99,-15.71,-15.63,0,*6D
1547485428.4,38348,0.0,0.0,-14.99,-15.71,-15.63,0,*62
1547485429.61,38349,0.0,0.0,-14.99,-15.71,-15.63,0,*63
1547485430.83,38350,0.0,0.0,-14.99,-15.71,-15.71,0,*68
1547485432.04,38351,0.0,0.0,-14.99,-15.71,-15.71,0,*69
1547485433.28,38352,0.0,0.0,-15.01,-15.71,-15.63,0,*69
1547485434.52,38353,0.0,0.0,-15.01,-15.71,-15.63,0,*68
1547485435.73,38354,0.0,0.0,-14.99,-15.71,-15.63,0,*6F
1547485436.97,38355,0.0,0.0,-15.01,-15.63,-15.63,0,*6D
1547485438.18,38356,0.0,0.0,-14.99,-15.63,-15.71,0,*6D
1547485439.42,38357,0.0,0.0,-15.01,-15.71,-15.71,0,*6F
1547485440.67,38358,0.0,0.0,-15.01,-15.75,-15.71,0,*64
1547485441.89,38359,0.0,0.0,-14.99,-15.75,-15.71,0,*65
1547485443.13,38360,0.0,0.0,-15.01,-15.71,-15.71,0,*6B
1547485444.37,38361,0.0,0.0,-15.01,-15.71,-15.71,0,*6A
1547485445.61,38362,0.0,0.0,-15.01,-15.71,-15.75,0,*6D
1547485446.83,38363,0.0,0.0,-14.99,-15.71,-15.71,0,*68
1547485448.04,38364,0.0,0.0,-14.99,-15.71,-15.71,0,*6F
1547485449.25,38365,0.0,0.0,-14.99,-15.71,-15.71,0,*6E
1547485450.49,38366,0.0,0.0,-15.01,-15.71,-15.63,0,*6E
1547485451.71,38367,0.0,0.0,-14.99,-15.71,-15.71,0,*6C
1547485452.92,38368,0.0,0.0,-14.99,-15.63,-15.71,0,*60
1547485454.13,38369,0.0,0.0,-14.99,-15.71,-15.71,0,*62
1547485455.35,38370,0.0,0.0,-14.99,-15.63,-15.71,0,*69
1547485456.59,38371,0.0,0.0,-15.01,-15.71,-15.71,0,*6B
1547485457.83,38372,0.0,0.0,-15.01,-15.71,-15.63,0,*6B
1547485459.07,38373,0.0,0.0,-15.01,-15.71,-15.71,0,*69
1547485460.31,38374,0.0,0.0,-15.01,-15.71,-15.71,0,*6E
1547485461.55,38375,0.0,0.0,-15.01,-15.71,-15.71,0,*6F
1547485462.77,38376,0.0,0.0,-14.99,-15.63,-15.71,0,*6F
1547485464.01,38377,0.0,0.0,-15.01,-15.75,-15.63,0,*6A
1547485465.22,38378,0.0,0.0,-14.99,-15.63,-15.71,0,*61
1547485466.49,38379,0.0,0.0,-15.01,-15.63,-15.57,0,*64
1547485467.73,38380,0.0,0.0,-15.01,-15.63,-15.71,0,*66
1547485468.95,38381,0.0,0.0,-14.99,-15.63,-15.71,0,*67
1547485470.19,38382,0.0,0.0,-15.01,-15.63,-15.71,0,*64
1547485471.45,38383,0.0,0.0,-15.01,-15.71,-15.57,0,*62
1547485472.69,38384,0.0,0.0,-15.01,-15.71,-15.63,0,*62
1547485473.93,38385,0.0,0.0,-15.01,-15.71,-15.63,0,*63
1547485475.17,38386,0.0,0.0,-15.01,-15.71,-15.63,0,*60
1547485476.41,38387,0.0,0.0,-15.01,-15.71,-15.63,0,*61
1547485477.65,38388,0.0,0.0,-15.01,-15.71,-15.63,0,*6E
1547485478.89,38389,0.0,0.0,-15.01,-15.71,-15.63,0,*6F
1547485480.12,38390,0.0,0.0,-15.01,-15.63,-15.63,0,*64
1547485481.37,38391,0.0,0.0,-15.01,-15.63,-15.71,0,*66
1547485482.61,38392,0.0,0.0,-15.01,-15.63,-15.71,0,*65
1547485483.85,38393,0.0,0.0,-15.01,-15.71,-15.63,0,*64
1547485485.09,38394,0.0,0.0,-15.01,-15.71,-15.63,0,*63
1547485486.32,38395,0.0,0.0,-15.01,-15.71,-15.63,0,*62
1547485487.54,38396,0.0,0.0,-14.99,-15.71,-15.71,0,*62
1547485488.78,38397,0.0,0.0,-15.01,-15.71,-15.71,0,*63
1547485489.99,38398,0.0,0.0,-14.99,-15.63,-15.63,0,*6C
1547485491.25,38399,0.0,0.0,-15.01,-15.57,-15.63,0,*6A
1547485492.49,38400,0.0,0.0,-15.01,-15.71,-15.63,0,*69
1547485493.73,38401,0.0,0.0,-15.01,-15.63,-15.63,0,*6B
1547485494.97,38402,0.0,0.0,-15.01,-15.63,-15.71,0,*6B
1547485496.19,38403,0.0,0.0,-15.03,-15.75,-15.75,0,*6B
1547485497.41,38404,0.0,0.0,-14.99,-15.71,-15.71,0,*6E
1547485498.65,38405,0.0,0.0,-15.01,-15.71,-15.63,0,*6C
1547485499.89,38406,0.0,0.0,-15.01,-15.63,-15.63,0,*6C
1547485501.1,38407,0.0,0.0,-14.99,-15.71,-15.75,0,*69
1547485502.34,38408,0.0,0.0,-15.01,-15.71,-15.63,0,*61
1547485503.58,38409,0.0,0.0,-15.01,-15.75,-15.63,0,*64
1547485504.82,38410,0.0,0.0,-15.01,-15.71,-15.63,0,*68
1547485506.03,38411,0.0,0.0,-14.99,-15.71,-15.71,0,*6A
1547485507.28,38412,0.0,0.0,-15.01,-15.71,-15.71,0,*69
1547485508.52,38413,0.0,0.0,-15.01,-15.75,-15.71,0,*6C
1547485509.76,38414,0.0,0.0,-15.01,-15.63,-15.71,0,*6C
1547485511.0,38415,0.0,0.0,-15.01,-15.71,-15.63,0,*6D
1547485512.21,38416,0.0,0.0,-14.99,-15.71,-15.63,0,*6E
1547485513.48,38417,0.0,0.0,-15.01,-15.71,-15.57,0,*68
1547485514.72,38418,0.0,0.0,-15.01,-15.71,-15.63,0,*60
1547485515.96,38419,0.0,0.0,-15.01,-15.71,-15.63,0,*61
1547485517.23,38420,0.0,0.0,-15.01,-15.75,-15.57,0,*68
1547485518.44,38421,0.0,0.0,-14.99,-15.71,-15.75,0,*6D
1547485519.68,38422,0.0,0.0,-15.01,-15.71,-15.71,0,*6A
1547485520.92,38423,0.0,0.0,-15.01,-15.71,-15.71,0,*6B
1547485522.16,38424,0.0,0.0,-15.01,-15.71,-15.71,0,*6C
1547485523.41,38425,0.0,0.0,-15.01,-15.75,-15.71,0,*69
1547485524.65,38426,0.0,0.0,-15.01,-15.71,-15.71,0,*6E
1547485525.89,38427,0.0,0.0,-15.01,-15.71,-15.71,0,*6F
1547485527.13,38428,0.0,0.0,-15.01,-15.71,-15.71,0,*60
1547485528.34,38429,0.0,0.0,-14.99,-15.71,-15.71,0,*61
1547485529.56,38430,0.0,0.0,-14.99,-15.71,-15.71,0,*69
1547485530.77,38431,0.0,0.0,-15.03,-15.75,-15.67,0,*69
1547485532.02,38432,0.0,0.0,-15.01,-15.75,-15.71,0,*6F
1547485533.26,38433,0.0,0.0,-15.01,-15.71,-15.71,0,*6A
1547485534.48,38434,0.0,0.0,-15.03,-15.75,-15.75,0,*6F
1547485535.72,38435,0.0,0.0,-15.01,-15.71,-15.71,0,*6C
1547485536.96,38436,0.0,0.0,-15.01,-15.75,-15.63,0,*68
1547485538.23,38437,0.0,0.0,-15.01,-15.57,-15.71,0,*6A
1547485539.49,38438,0.0,0.0,-15.01,-15.71,-15.57,0,*65
1547485540.73,38439,0.0,0.0,-15.01,-15.63,-15.63,0,*60
1547485541.95,38440,0.0,0.0,-15.03,-15.75,-15.67,0,*6F
1547485543.17,38441,0.0,0.0,-15.03,-15.75,-15.75,0,*6D
1547485544.41,38442,0.0,0.0,-15.03,-15.81,-15.75,0,*65
1547485545.65,38443,0.0,0.0,-15.01,-15.71,-15.71,0,*6D
1547485546.89,38444,0.0,0.0,-15.01,-15.63,-15.71,0,*69
1547485548.14,38445,0.0,0.0,-15.01,-15.75,-15.71,0,*6F
1547485549.38,38446,0.0,0.0,-15.01,-15.63,-15.71,0,*6B
1547485550.62,38447,0.0,0.0,-15.01,-15.63,-15.75,0,*6E
1547485551.86,38448,0.0,0.0,-15.01,-15.71,-15.63,0,*65
1547485553.1,38449,0.0,0.0,-15.01,-15.71,-15.63,0,*64
1547485554.34,38450,0.0,0.0,-15.01,-15.63,-15.63,0,*6F
1547485555.58,38451,0.0,0.0,-15.01,-15.63,-15.63,0,*6E
1547485556.82,38452,0.0,0.0,-15.01,-15.71,-15.63,0,*6E
1547485558.05,38453,0.0,0.0,-15.01,-15.71,-15.63,0,*6F
1547485559.27,38454,0.0,0.0,-14.99,-15.63,-15.63,0,*6B
1547485560.51,38455,0.0,0.0,-15.01,-15.71,-15.71,0,*6A
1547485561.75,38456,0.0,0.0,-15.01,-15.63,-15.63,0,*69
1547485562.99,38457,0.0,0.0,-15.01,-15.63,-15.63,0,*68
1547485564.23,38458,0.0,0.0,-15.01,-15.63,-15.63,0,*67
1547485565.46,38459,0.0,0.0,-15.01,-15.63,-15.63,0,*66
1547485566.73,38460,0.0,0.0,-15.01,-15.63,-15.57,0,*6B
1547485567.94,38461,0.0,0.0,-15.03,-15.67,-15.63,0,*6B
1547485569.18,38462,0.0,0.0,-15.01,-15.63,-15.63,0,*6E
1547485570.4,38463,0.0,0.0,-15.03,-15.67,-15.75,0,*6E
1547485571.61,38464,0.0,0.0,-15.03,-15.67,-15.67,0,*6A
1547485572.83,38465,0.0,0.0,-15.03,-15.75,-15.75,0,*6B
1547485574.05,38466,0.0,0.0,-15.03,-15.75,-15.67,0,*6B
1547485575.26,38467,0.0,0.0,-15.03,-15.75,-15.67,0,*6A
1547485576.5,38468,0.0,0.0,-15.01,-15.71,-15.63,0,*67
1547485577.72,38469,0.0,0.0,-15.03,-15.75,-15.63,0,*60
1547485578.93,38470,0.0,0.0,-15.03,-15.67,-15.75,0,*6C
1547485580.18,38471,0.0,0.0,-15.05,-15.75,-15.75,0,*68
1547485581.4,38472,0.0,0.0,-15.03,-15.75,-15.67,0,*6E
1547485582.61,38473,0.0,0.0,-15.03,-15.75,-15.67,0,*6F
1547485583.82,38474,0.0,0.0,-14.99,-15.71,-15.71,0,*69
1547485585.05,38475,0.0,0.0,-15.03,-15.75,-15.75,0,*6A
1547485586.26,38476,0.0,0.0,-15.03,-15.67,-15.75,0,*6A
1547485587.49,38477,0.0,0.0,-15.03,-15.75,-15.75,0,*68
1547485588.7,38478,0.0,0.0,-15.03,-15.75,-15.67,0,*64
1547485589.94,38479,0.0,0.0,-15.05,-15.75,-15.67,0,*63
1547485591.15,38480,0.0,0.0,-15.03,-15.75,-15.67,0,*63
1547485592.38,38481,0.0,0.0,-15.03,-15.75,-15.75,0,*61
1547485593.6,38482,0.0,0.0,-15.03,-15.75,-15.75,0,*62
1547485594.82,38483,0.0,0.0,-15.03,-15.75,-15.75,0,*63
1547485596.04,38484,0.0,0.0,-15.03,-15.75,-15.75,0,*64
1547485597.26,38485,0.0,0.0,-15.03,-15.75,-15.63,0,*62
1547485598.51,38486,0.0,0.0,-15.03,-15.75,-15.81,0,*6D
1547485599.73,38487,0.0,0.0,-15.03,-15.75,-15.75,0,*67
1547485600.94,38488,0.0,0.0,-15.03,-15.67,-15.67,0,*68
1547485602.18,38489,0.0,0.0,-15.01,-15.63,-15.63,0,*6B
1547485603.39,38490,0.0,0.0,-15.03,-15.67,-15.67,0,*61
1547485604.62,38491,0.0,0.0,-15.03,-15.81,-15.67,0,*68
1547485605.86,38492,0.0,0.0,-15.05,-15.67,-15.67,0,*65
1547485607.1,38493,0.0,0.0,-15.01,-15.71,-15.71,0,*60
1547485608.32,38494,0.0,0.0,-15.03,-15.75,-15.75,0,*65
1547485609.56,38495,0.0,0.0,-15.05,-15.75,-15.67,0,*61
1547485610.82,38496,0.0,0.0,-15.05,-15.81,-15.67,0,*69
1547485612.04,38497,0.0,0.0,-15.03,-15.75,-15.67,0,*65
1547485613.25,38498,0.0,0.0,-15.03,-15.75,-15.67,0,*6A
1547485614.47,38499,0.0,0.0,-15.03,-15.75,-15.67,0,*6B
1547485615.71,38500,0.0,0.0,-15.05,-15.75,-15.67,0,*6C
1547485616.93,38501,0.0,0.0,-15.03,-15.75,-15.75,0,*68
1547485618.15,38502,0.0,0.0,-15.03,-15.75,-15.67,0,*68
1547485619.35,38503,0.0,0.0,-15.03,-15.67,-15.67,0,*6A
1547485620.6,38504,0.0,0.0,-15.05,-15.75,-15.67,0,*68
1547485621.82,38505,0.0,0.0,-15.03,-15.75,-15.75,0,*6C
1547485623.06,38506,0.0,0.0,-15.05,-15.75,-15.67,0,*6A
1547485624.27,38507,0.0,0.0,-15.03,-15.67,-15.67,0,*6E
1547485625.49,38508,0.0,0.0,-15.03,-15.75,-15.75,0,*61
1547485626.71,38509,0.0,0.0,-15.03,-15.75,-15.67,0,*63
1547485627.95,38510,0.0,0.0,-15.05,-15.75,-15.67,0,*6D
1547485629.16,38511,0.0,0.0,-15.03,-15.63,-15.67,0,*6D
1547485630.41,38512,0.0,0.0,-15.05,-15.75,-15.75,0,*6C
1547485631.63,38513,0.0,0.0,-15.03,-15.75,-15.75,0,*6B
1547485632.88,38514,0.0,0.0,-15.05,-15.75,-15.75,0,*6A
1547485634.1,38515,0.0,0.0,-15.03,-15.67,-15.75,0,*6E
1547485635.32,38516,0.0,0.0,-15.03,-15.75,-15.75,0,*6E
1547485636.56,38517,0.0,0.0,-15.05,-15.75,-15.67,0,*6A
1547485637.81,38518,0.0,0.0,-15.05,-15.75,-15.75,0,*66
1547485639.02,38519,0.0,0.0,-15.03,-15.67,-15.67,0,*61
1547485640.23,38520,0.0,0.0,-15.03,-15.67,-15.75,0,*68
1547485641.47,38521,0.0,0.0,-15.05,-15.67,-15.67,0,*6C
1547485642.71,38522,0.0,0.0,-15.05,-15.75,-15.67,0,*6C
1547485643.96,38523,0.0,0.0,-15.05,-15.75,-15.67,0,*6D
1547485645.2,38524,0.0,0.0,-15.05,-15.75,-15.67,0,*6A
1547485646.44,38525,0.0,0.0,-15.05,-15.75,-15.67,0,*6B
1547485647.65,38526,0.0,0.0,-15.03,-15.67,-15.67,0,*6D
1547485648.86,38527,0.0,0.0,-15.03,-15.75,-15.67,0,*6F
1547485650.1,38528,0.0,0.0,-15.05,-15.67,-15.67,0,*65
1547485651.31,38529,0.0,0.0,-15.03,-15.63,-15.67,0,*66
1547485652.55,38530,0.0,0.0,-15.03,-15.81,-15.67,0,*62
1547485653.76,38531,0.0,0.0,-15.03,-15.75,-15.67,0,*68
1547485655.02,38532,0.0,0.0,-15.05,-15.81,-15.67,0,*66
1547485656.27,38533,0.0,0.0,-15.05,-15.75,-15.75,0,*6F
1547485657.52,38534,0.0,0.0,-15.05,-15.67,-15.75,0,*6B
1547485658.76,38535,0.0,0.0,-15.05,-15.67,-15.75,0,*6A
1547485659.97,38536,0.0,0.0,-15.03,-15.67,-15.67,0,*6C
1547485661.18,38537,0.0,0.0,-15.03,-15.67,-15.63,0,*69
1547485662.43,38538,0.0,0.0,-15.05,-15.75,-15.67,0,*67
1547485663.64,38539,0.0,0.0,-15.03,-15.75,-15.67,0,*60
1547485664.88,38540,0.0,0.0,-15.01,-15.63,-15.63,0,*6F
1547485666.09,38541,0.0,0.0,-15.03,-15.67,-15.67,0,*6C
1547485667.34,38542,0.0,0.0,-15.05,-15.75,-15.75,0,*69
1547485668.58,38543,0.0,0.0,-15.05,-15.75,-15.67,0,*6B
1547485669.82,38544,0.0,0.0,-15.05,-15.75,-15.67,0,*6C
1547485671.04,38545,0.0,0.0,-15.03,-15.75,-15.67,0,*6B
1547485672.28,38546,0.0,0.0,-15.05,-15.75,-15.67,0,*6E
1547485673.52,38547,0.0,0.0,-15.05,-15.75,-15.67,0,*6F
1547485674.73,38548,0.0,0.0,-15.03,-15.67,-15.67,0,*65
1547485675.94,38549,0.0,0.0,-15.03,-15.75,-15.67,0,*67
1547485677.19,38550,0.0,0.0,-15.05,-15.75,-15.67,0,*69
1547485678.42,38551,0.0,0.0,-15.03,-15.81,-15.67,0,*65
1547485679.66,38552,0.0,0.0,-15.05,-15.75,-15.67,0,*6B
1547485680.91,38553,0.0,0.0,-15.03,-15.75,-15.81,0,*64
1547485682.15,38554,0.0,0.0,-15.05,-15.75,-15.67,0,*6D
1547485683.4,38555,0.0,0.0,-15.05,-15.75,-15.75,0,*6F
1547485684.64,38556,0.0,0.0,-15.05,-15.67,-15.67,0,*6C
1547485685.91,38557,0.0,0.0,-15.05,-15.75,-15.81,0,*66
1547485687.15,38558,0.0,0.0,-15.05,-15.67,-15.67,0,*62
1547485688.36,38559,0.0,0.0,-15.03,-15.75,-15.67,0,*66
1547485689.58,38560,0.0,0.0,-15.03,-15.75,-15.67,0,*6C
1547485690.83,38561,0.0,0.0,-15.05,-15.75,-15.75,0,*68
1547485692.07,38562,0.0,0.0,-15.05,-15.67,-15.75,0,*68
1547485693.31,38563,0.0,0.0,-15.05,-15.75,-15.67,0,*69
1547485694.56,38564,0.0,0.0,-15.05,-15.75,-15.67,0,*6E
1547485695.8,38565,0.0,0.0,-15.05,-15.75,-15.67,0,*6F
1547485697.04,38566,0.0,0.0,-15.05,-15.75,-15.67,0,*6C
1547485698.26,38567,0.0,0.0,-15.03,-15.75,-15.75,0,*68
1547485699.47,38568,0.0,0.0,-15.03,-15.67,-15.67,0,*67
1547485700.72,38569,0.0,0.0,-15.05,-15.75,-15.75,0,*60
1547485701.96,38570,0.0,0.0,-15.05,-15.75,-15.67,0,*6B
1547485703.2,38571,0.0,0.0,-15.05,-15.75,-15.67,0,*6A
1547485704.42,38572,0.0,0.0,-15.03,-15.75,-15.67,0,*6F
1547485705.68,38573,0.0,0.0,-15.05,-15.81,-15.67,0,*63
1547485706.93,38574,0.0,0.0,-15.05,-15.75,-15.75,0,*6C
1547485708.17,38575,0.0,0.0,-15.05,-15.67,-15.75,0,*6E
1547485709.41,38576,0.0,0.0,-15.05,-15.67,-15.67,0,*6E
1547485710.65,38577,0.0,0.0,-15.05,-15.67,-15.75,0,*6C
1547485711.93,38578,0.0,0.0,-15.05,-15.75,-15.81,0,*6B
1547485713.14,38579,0.0,0.0,-15.03,-15.75,-15.67,0,*64
1547485714.39,38580,0.0,0.0,-15.05,-15.75,-15.67,0,*64
1547485715.63,38581,0.0,0.0,-15.05,-15.75,-15.75,0,*66
1547485716.87,38582,0.0,0.0,-15.05,-15.67,-15.67,0,*65
1547485718.08,38583,0.0,0.0,-15.07,-15.67,-15.67,0,*66
1547485719.3,38584,0.0,0.0,-15.07,-15.75,-15.75,0,*61
1547485720.54,38585,0.0,0.0,-15.05,-15.67,-15.75,0,*61
1547485721.79,38586,0.0,0.0,-15.05,-15.67,-15.75,0,*62
1547485723.03,38587,0.0,0.0,-15.05,-15.75,-15.67,0,*63
1547485724.27,38588,0.0,0.0,-15.05,-15.75,-15.67,0,*6C
1547485725.51,38589,0.0,0.0,-15.05,-15.75,-15.67,0,*6D
1547485726.75,38590,0.0,0.0,-15.05,-15.67,-15.67,0,*66
1547485727.99,38591,0.0,0.0,-15.03,-15.81,-15.67,0,*69
1547485729.23,38592,0.0,0.0,-15.05,-15.75,-15.75,0,*64
1547485730.48,38593,0.0,0.0,-15.05,-15.75,-15.67,0,*66
1547485731.72,38594,0.0,0.0,-15.05,-15.75,-15.67,0,*61
1547485732.96,38595,0.0,0.0,-15.05,-15.75,-15.63,0,*64
1547485734.21,38596,0.0,0.0,-15.05,-15.75,-15.67,0,*63
1547485735.47,38597,0.0,0.0,-15.05,-15.81,-15.67,0,*69
1547485736.71,38598,0.0,0.0,-15.05,-15.75,-15.67,0,*6D